GS0511 Weather Reports


time (UTC)temp
C
wind
direction
speed
KPH
gust
KPH
rain 1hr
cm
rain 24hr
cm
rain mn
cm
humidity
%
barometer
mb
20260504044459 11 196 3.2 6.4 0.00 0.00 0.00 60 1009.7
20260504040007 11 202 3.2 6.4 0.00 0.00 0.00 59 1009.9
20260504034501 11 177 3.2 6.4 0.00 0.00 0.00 59 1009.9
20260504030005 12 210 6.4 17.7 0.00 0.00 0.00 56 1009.9
20260504024501 12 234 6.4 12.9 0.00 0.00 0.00 56 1009.9
20260504021502 11 232 6.4 12.9 0.00 0.00 0.00 58 1010.1
20260504020005 12 250 8.0 19.3 0.00 0.00 0.00 58 1010.1
20260504014501 11 281 6.4 24.1 0.00 0.00 0.00 59 1010.2
20260504013001 11 208 4.8 8.0 0.00 0.00 0.00 62 1010.1
20260504011501 11 215 3.2 8.0 0.00 0.00 0.00 67 1010.1
20260504004502 10 249 3.2 6.4 0.00 0.00 0.00 70 1010.4
20260504003001 10 287 1.6 6.4 0.00 0.00 0.00 71 1010.4
20260504001501 10 248 1.6 6.4 0.00 0.00 0.00 73 1010.7
20260504000006 10 271 3.2 9.7 0.00 0.00 0.00 74 1010.8
20260503233002 10 289 8.0 19.3 0.00 0.00 0.00 72 1010.6
20260503231502 11 294 12.9 30.6 0.00 0.00 0.00 69 1010.5
20260503224501 12 225 9.7 25.7 0.00 0.00 0.00 58 1010.3
20260503223001 12 277 11.3 24.1 0.00 0.00 0.00 59 1010.0
20260503221502 12 232 12.9 27.4 0.00 0.00 0.00 56 1010.2
20260503220006 12 252 9.7 29.0 0.00 0.00 0.00 54 1010.1
20260503214501 12 219 9.7 22.5 0.00 0.00 0.00 51 1010.0
20260503213001 12 263 9.7 27.4 0.00 0.00 0.00 52 1010.2
20260503210005 12 284 9.7 22.5 0.00 0.00 0.00 52 1010.2
20260503201500 13 244 11.3 30.6 0.00 0.00 0.00 49 1010.3
20260503200004 13 204 12.9 32.2 0.00 0.00 0.00 47 1010.6
20260503194500 13 243 12.9 27.4 0.00 0.00 0.00 46 1010.8
20260503193000 13 225 11.3 27.4 0.00 0.00 0.00 46 1011.3
20260503190004 12 265 11.3 22.5 0.00 0.00 0.00 47 1011.6
20260503183000 12 278 11.3 30.6 0.00 0.00 0.00 45 1012.3
20260503181500 12 235 11.3 22.5 0.00 0.00 0.00 45 1012.4
20260503180006 12 262 9.7 20.9 0.00 0.00 0.00 45 1012.4
20260503174500 11 269 8.0 20.9 0.00 0.00 0.00 44 1012.5
20260503173000 12 289 9.7 24.1 0.00 0.00 0.00 50 1012.7
20260503171501 11 238 9.7 22.5 0.00 0.00 0.00 49 1012.8
20260503081459 1 223 0.0 0.0 0.00 0.00 0.00 89 1014.6
20260503071501 2 226 0.0 3.2 0.00 0.00 0.00 86 1014.6
20260503054458 3 244 0.0 3.2 0.00 0.00 0.00 80 1014.8
20260503052958 3 244 0.0 0.0 0.00 0.00 0.00 80 1014.9
20260503051459 3 244 0.0 0.0 0.00 0.00 0.00 80 1015.2
20260503050001 4 236 0.0 4.8 0.00 0.00 0.00 80 1015.3